TimeCST,TemperatureF,Dew PointF,Humidity,Sea Level PressureIn,VisibilityMPH,Wind Direction,Wind SpeedMPH,Gust SpeedMPH,PrecipitationIn,Events,Conditions,WindDirDegrees,DateUTC
12:52 AM,42.1,25.0,51,29.93,10.0,Calm,Calm,-,N/A,,Clear,0,2012-12-23 06:52:00
1:52 AM,44.1,27.0,51,29.92,10.0,Calm,Calm,-,N/A,,Clear,0,2012-12-23 07:52:00
2:52 AM,39.9,27.0,60,29.92,10.0,Calm,Calm,-,N/A,,Clear,0,2012-12-23 08:52:00
3:52 AM,39.0,28.0,65,29.91,10.0,Calm,Calm,-,N/A,,Clear,0,2012-12-23 09:52:00
4:52 AM,37.0,28.9,73,29.90,10.0,ESE,3.5,-,N/A,,Clear,110,2012-12-23 10:52:00
5:52 AM,35.1,27.0,72,29.91,10.0,Calm,Calm,-,N/A,,Clear,0,2012-12-23 11:52:00
7:52 AM,32.0,23.0,69,29.95,10.0,NNW,9.2,-,N/A,,Clear,330,2012-12-23 13:52:00
8:52 AM,34.0,25.0,70,29.94,10.0,NNW,11.5,-,N/A,,Clear,340,2012-12-23 14:52:00
9:52 AM,36.0,27.0,70,29.96,10.0,North,9.2,-,N/A,,Clear,350,2012-12-23 15:52:00
10:52 AM,41.0,28.0,60,29.94,10.0,NNE,8.1,-,N/A,,Clear,20,2012-12-23 16:52:00
12:52 PM,48.9,30.9,50,29.88,10.0,NNW,6.9,-,N/A,,Clear,340,2012-12-23 18:52:00
1:52 PM,50.0,32.0,50,29.86,10.0,North,6.9,-,N/A,,Clear,10,2012-12-23 19:52:00
2:52 PM,51.1,30.9,46,29.86,10.0,North,11.5,-,N/A,,Clear,360,2012-12-23 20:52:00
3:52 PM,48.9,30.0,48,29.86,9.0,NNW,10.4,-,N/A,,Clear,340,2012-12-23 21:52:00
4:52 PM,42.1,28.9,60,29.89,6.0,North,15.0,-,N/A,,Haze,350,2012-12-23 22:52:00
5:52 PM,36.0,26.1,67,29.93,6.0,NNW,13.8,-,N/A,,Haze,340,2012-12-23 23:52:00
6:52 PM,33.1,25.0,72,29.94,6.0,NNW,10.4,-,N/A,,Haze,330,2012-12-24 00:52:00
7:52 PM,32.0,25.0,75,29.96,6.0,NNW,10.4,-,N/A,,Haze,330,2012-12-24 01:52:00
8:52 PM,30.0,24.1,79,29.97,5.0,NNW,11.5,-,N/A,,Haze,330,2012-12-24 02:52:00
9:52 PM,28.9,24.1,82,29.95,5.0,North,4.6,-,N/A,,Haze,10,2012-12-24 03:52:00
10:52 PM,28.9,24.1,82,29.99,5.0,NNW,11.5,-,N/A,,Haze,330,2012-12-24 04:52:00
11:52 PM,28.9,23.0,78,29.99,6.0,North,6.9,-,N/A,,Haze,350,2012-12-24 05:52:00